| time (UTC) | temp F | wind direction | speed knots | gust knots | rain 1hr in | rain 24hr in | rain mn in | humidity % | barometer mb |
| 20260504130503 | 61 | 213 | 0.9 | 5.2 | 0.00 | 0.00 | 0.00 | 75 | 1003.6 |
| 20260504110503 | 46 | 0 | 0.0 | 0.0 | 0.00 | 0.00 | 0.00 | 91 | 1004.0 |
| 20260504100503 | 46 | 0 | 0.0 | 0.0 | 0.00 | 0.00 | 0.00 | 91 | 1004.6 |
| 20260504082003 | 47 | 0 | 0.0 | 0.0 | 0.00 | 0.00 | 0.00 | 90 | 1005.0 |
| 20260504081503 | 47 | 0 | 0.0 | 0.0 | 0.00 | 0.00 | 0.00 | 90 | 1005.1 |
| 20260504081003 | 47 | 0 | 0.0 | 0.0 | 0.00 | 0.00 | 0.00 | 89 | 1005.0 |
| 20260504080503 | 47 | 0 | 0.0 | 0.0 | 0.00 | 0.00 | 0.00 | 89 | 1005.2 |
| 20260504060213 | 50 | 0 | 0.0 | 0.0 | 0.00 | 0.00 | 0.00 | 83 | 1006.1 |
| 20260504050503 | 52 | 0 | 0.0 | 0.0 | 0.00 | 0.00 | 0.00 | 78 | 1006.7 |
| 20260504050010 | 52 | 0 | 0.0 | 0.0 | 0.00 | 0.00 | 0.00 | 77 | 1006.7 |
| 20260504045503 | 52 | 0 | 0.0 | 0.0 | 0.00 | 0.00 | 0.00 | 77 | 1006.8 |
| 20260504045003 | 53 | 0 | 0.0 | 0.0 | 0.00 | 0.00 | 0.00 | 76 | 1006.8 |
| 20260504044504 | 53 | 0 | 0.0 | 0.0 | 0.00 | 0.00 | 0.00 | 75 | 1006.7 |
| 20260504044003 | 53 | 0 | 0.0 | 0.0 | 0.00 | 0.00 | 0.00 | 75 | 1006.8 |
| 20260504043714 | 53 | 0 | 0.0 | 0.0 | 0.00 | 0.00 | 0.00 | 74 | 1006.8 |
| 20260504043003 | 54 | 0 | 0.0 | 0.0 | 0.00 | 0.00 | 0.00 | 74 | 1006.8 |
| 20260504042503 | 54 | 0 | 0.0 | 0.0 | 0.00 | 0.00 | 0.00 | 73 | 1006.8 |
| 20260504042003 | 54 | 0 | 0.0 | 0.0 | 0.00 | 0.00 | 0.00 | 72 | 1006.9 |
| 20260504041503 | 55 | 0 | 0.0 | 0.0 | 0.00 | 0.00 | 0.00 | 72 | 1007.0 |
| 20260504041003 | 55 | 0 | 0.0 | 0.0 | 0.00 | 0.00 | 0.00 | 71 | 1007.0 |
| 20260504040503 | 55 | 0 | 0.0 | 0.0 | 0.00 | 0.00 | 0.00 | 71 | 1007.0 |
| 20260504040004 | 56 | 0 | 0.0 | 0.0 | 0.00 | 0.00 | 0.00 | 70 | 1007.0 |
| 20260504035503 | 56 | 0 | 0.0 | 0.0 | 0.00 | 0.00 | 0.00 | 70 | 1007.0 |
| 20260504035003 | 56 | 0 | 0.0 | 0.0 | 0.00 | 0.00 | 0.00 | 69 | 1007.0 |
| 20260504034503 | 56 | 0 | 0.0 | 0.0 | 0.00 | 0.00 | 0.00 | 69 | 1007.0 |
| 20260504034003 | 56 | 0 | 0.0 | 0.0 | 0.00 | 0.00 | 0.00 | 68 | 1007.1 |
| 20260504033714 | 57 | 0 | 0.0 | 0.0 | 0.00 | 0.00 | 0.00 | 67 | 1007.1 |
| 20260504033004 | 57 | 0 | 0.0 | 0.0 | 0.00 | 0.00 | 0.00 | 66 | 1007.2 |
| 20260504032503 | 58 | 0 | 0.0 | 0.0 | 0.00 | 0.00 | 0.00 | 65 | 1007.1 |
| 20260504032003 | 58 | 0 | 0.0 | 0.0 | 0.00 | 0.00 | 0.00 | 64 | 1007.2 |
| 20260504031503 | 58 | 0 | 0.0 | 0.0 | 0.00 | 0.00 | 0.00 | 63 | 1007.2 |
| 20260504031003 | 59 | 0 | 0.0 | 0.0 | 0.00 | 0.00 | 0.00 | 62 | 1007.2 |
| 20260504030503 | 59 | 0 | 0.0 | 0.0 | 0.00 | 0.00 | 0.00 | 61 | 1007.2 |
| 20260504030003 | 60 | 0 | 0.0 | 0.0 | 0.00 | 0.00 | 0.00 | 61 | 1007.2 |
| 20260504025503 | 60 | 0 | 0.0 | 0.0 | 0.00 | 0.00 | 0.00 | 60 | 1007.2 |
| 20260504025003 | 60 | 207 | 0.0 | 3.5 | 0.00 | 0.00 | 0.00 | 60 | 1007.2 |
| 20260504024503 | 60 | 207 | 0.0 | 3.5 | 0.00 | 0.00 | 0.00 | 59 | 1007.1 |
| 20260504024214 | 60 | 207 | 0.0 | 3.5 | 0.00 | 0.00 | 0.00 | 59 | 1007.1 |
| 20260504023503 | 61 | 0 | 0.0 | 0.0 | 0.00 | 0.00 | 0.00 | 59 | 1007.1 |
| 20260504023003 | 60 | 0 | 0.0 | 0.0 | 0.00 | 0.00 | 0.00 | 59 | 1007.1 |
| 20260504022503 | 60 | 0 | 0.0 | 0.0 | 0.00 | 0.00 | 0.00 | 59 | 1007.1 |
| 20260504022003 | 61 | 0 | 0.0 | 0.0 | 0.00 | 0.00 | 0.00 | 59 | 1007.0 |
| 20260504021713 | 61 | 0 | 0.0 | 0.0 | 0.00 | 0.00 | 0.00 | 58 | 1007.0 |
| 20260504021003 | 61 | 0 | 0.0 | 0.0 | 0.00 | 0.00 | 0.00 | 57 | 1007.0 |
| 20260504020713 | 61 | 0 | 0.0 | 0.0 | 0.00 | 0.00 | 0.00 | 57 | 1007.0 |
| 20260504020003 | 62 | 0 | 0.0 | 0.0 | 0.00 | 0.00 | 0.00 | 56 | 1006.9 |
| 20260504015503 | 62 | 0 | 0.0 | 0.0 | 0.00 | 0.00 | 0.00 | 55 | 1007.0 |
| 20260504015003 | 62 | 0 | 0.0 | 0.0 | 0.00 | 0.00 | 0.00 | 55 | 1006.9 |
| 20260504014503 | 63 | 0 | 0.0 | 0.0 | 0.00 | 0.00 | 0.00 | 54 | 1006.9 |
| 20260504014003 | 63 | 0 | 0.0 | 0.0 | 0.00 | 0.00 | 0.00 | 54 | 1006.9 |
| 20260504013713 | 64 | 0 | 0.0 | 0.0 | 0.00 | 0.00 | 0.00 | 54 | 1006.9 |
| 20260504013214 | 64 | 0 | 0.0 | 0.0 | 0.00 | 0.00 | 0.00 | 53 | 1006.9 |
| 20260504012503 | 64 | 212 | 0.0 | 0.9 | 0.00 | 0.00 | 0.00 | 53 | 1006.9 |
| 20260504012003 | 65 | 212 | 0.0 | 0.9 | 0.00 | 0.00 | 0.00 | 52 | 1006.9 |
| 20260504011503 | 65 | 211 | 0.0 | 0.9 | 0.00 | 0.00 | 0.00 | 52 | 1006.8 |
| 20260504011003 | 66 | 211 | 0.0 | 0.9 | 0.00 | 0.00 | 0.00 | 51 | 1006.8 |
| 20260504010503 | 66 | 0 | 0.0 | 0.0 | 0.00 | 0.00 | 0.00 | 50 | 1006.7 |
| 20260504010003 | 67 | 0 | 0.0 | 0.0 | 0.00 | 0.00 | 0.00 | 49 | 1006.7 |
| 20260504005503 | 67 | 211 | 0.0 | 0.9 | 0.00 | 0.00 | 0.00 | 49 | 1006.7 |
| 20260504005004 | 67 | 211 | 0.0 | 0.9 | 0.00 | 0.00 | 0.00 | 48 | 1006.6 |
| 20260504004503 | 68 | 0 | 0.0 | 0.0 | 0.00 | 0.00 | 0.00 | 48 | 1006.7 |
| 20260504004003 | 68 | 213 | 0.0 | 0.9 | 0.00 | 0.00 | 0.00 | 47 | 1006.6 |
| 20260504003503 | 68 | 213 | 0.0 | 0.9 | 0.00 | 0.00 | 0.00 | 46 | 1006.6 |
| 20260504003003 | 68 | 0 | 0.0 | 0.0 | 0.00 | 0.00 | 0.00 | 46 | 1006.6 |
| 20260504002503 | 69 | 0 | 0.0 | 0.0 | 0.00 | 0.00 | 0.00 | 46 | 1006.7 |
| 20260504002003 | 69 | 230 | 0.0 | 4.3 | 0.00 | 0.00 | 0.00 | 45 | 1006.6 |
| 20260504001503 | 69 | 237 | 0.0 | 4.3 | 0.00 | 0.00 | 0.00 | 45 | 1006.7 |
| 20260504001003 | 69 | 255 | 0.0 | 1.7 | 0.00 | 0.00 | 0.00 | 45 | 1006.7 |
| 20260504000503 | 70 | 196 | 0.0 | 0.9 | 0.00 | 0.00 | 0.00 | 46 | 1006.7 |
| 20260504000003 | 70 | 227 | 0.0 | 0.9 | 0.00 | 0.00 | 0.00 | 46 | 1006.8 |
| 20260503235504 | 70 | 213 | 0.0 | 6.1 | 0.00 | 0.00 | 0.00 | 46 | 1006.7 |
| 20260503235003 | 70 | 211 | 0.0 | 6.1 | 0.00 | 0.00 | 0.00 | 45 | 1006.8 |
| 20260503234503 | 70 | 194 | 0.0 | 3.5 | 0.00 | 0.00 | 0.00 | 46 | 1006.7 |
| 20260503234003 | 70 | 215 | 0.0 | 4.3 | 0.00 | 0.00 | 0.00 | 45 | 1006.7 |
| 20260503233503 | 70 | 236 | 0.0 | 4.3 | 0.00 | 0.00 | 0.00 | 45 | 1006.7 |
| 20260503233213 | 70 | 244 | 0.0 | 0.9 | 0.00 | 0.00 | 0.00 | 46 | 1006.7 |
| 20260503232503 | 70 | 224 | 0.0 | 3.5 | 0.00 | 0.00 | 0.00 | 47 | 1006.8 |
| 20260503232003 | 70 | 195 | 0.0 | 6.1 | 0.00 | 0.00 | 0.00 | 46 | 1006.8 |
| 20260503231503 | 70 | 201 | 0.0 | 6.1 | 0.00 | 0.00 | 0.00 | 46 | 1006.8 |
| 20260503231003 | 70 | 224 | 0.0 | 3.5 | 0.00 | 0.00 | 0.00 | 46 | 1006.9 |
| 20260503230503 | 70 | 0 | 0.0 | 0.0 | 0.00 | 0.00 | 0.00 | 47 | 1006.9 |
| 20260503230003 | 70 | 0 | 0.0 | 0.0 | 0.00 | 0.00 | 0.00 | 48 | 1006.9 |
| 20260503225503 | 70 | 207 | 0.0 | 0.9 | 0.00 | 0.00 | 0.00 | 46 | 1006.9 |
| 20260503225003 | 70 | 207 | 0.0 | 0.9 | 0.00 | 0.00 | 0.00 | 46 | 1006.9 |
| 20260503224503 | 71 | 214 | 0.0 | 1.7 | 0.00 | 0.00 | 0.00 | 47 | 1006.9 |
| 20260503224003 | 71 | 206 | 0.0 | 3.5 | 0.00 | 0.00 | 0.00 | 45 | 1007.0 |
| 20260503223503 | 71 | 206 | 0.0 | 3.5 | 0.00 | 0.00 | 0.00 | 46 | 1007.0 |
| 20260503223213 | 71 | 213 | 0.0 | 3.5 | 0.00 | 0.00 | 0.00 | 46 | 1007.0 |
| 20260503222503 | 71 | 248 | 0.0 | 4.3 | 0.00 | 0.00 | 0.00 | 46 | 1007.0 |
| 20260503222003 | 71 | 235 | 0.0 | 2.6 | 0.00 | 0.00 | 0.00 | 47 | 1006.9 |
| 20260503221503 | 71 | 221 | 0.0 | 2.6 | 0.00 | 0.00 | 0.00 | 46 | 1007.0 |
| 20260503221003 | 71 | 204 | 0.0 | 2.6 | 0.00 | 0.00 | 0.00 | 47 | 1007.0 |
| 20260503220503 | 71 | 246 | 0.0 | 0.9 | 0.00 | 0.00 | 0.00 | 47 | 1007.1 |
| 20260503220003 | 71 | 215 | 0.0 | 7.8 | 0.00 | 0.00 | 0.00 | 46 | 1007.1 |
| 20260503215503 | 71 | 213 | 0.0 | 7.8 | 0.00 | 0.00 | 0.00 | 46 | 1007.2 |
| 20260503215214 | 71 | 216 | 0.0 | 4.3 | 0.00 | 0.00 | 0.00 | 46 | 1007.2 |
| 20260503214503 | 71 | 160 | 0.0 | 1.7 | 0.00 | 0.00 | 0.00 | 48 | 1007.2 |
| 20260503214003 | 71 | 210 | 0.0 | 4.3 | 0.00 | 0.00 | 0.00 | 49 | 1007.2 |
| 20260503213503 | 71 | 239 | 0.0 | 5.2 | 0.00 | 0.00 | 0.00 | 47 | 1007.3 |
| 20260503213003 | 70 | 266 | 0.0 | 5.2 | 0.00 | 0.00 | 0.00 | 49 | 1007.4 |
| 20260503212713 | 70 | 240 | 0.0 | 2.6 | 0.00 | 0.00 | 0.00 | 50 | 1007.5 |
| 20260503212214 | 69 | 346 | 0.0 | 5.2 | 0.00 | 0.00 | 0.00 | 51 | 1007.5 |
| 20260503211713 | 69 | 283 | 0.0 | 6.1 | 0.00 | 0.00 | 0.00 | 49 | 1007.5 |
| 20260503211003 | 69 | 239 | 0.0 | 6.1 | 0.00 | 0.00 | 0.00 | 50 | 1007.5 |
| 20260503210503 | 69 | 219 | 0.0 | 5.2 | 0.00 | 0.00 | 0.00 | 49 | 1007.6 |
| 20260503210003 | 69 | 201 | 0.9 | 7.8 | 0.00 | 0.00 | 0.00 | 48 | 1007.7 |
| 20260503205503 | 70 | 195 | 0.9 | 11.3 | 0.00 | 0.00 | 0.00 | 48 | 1007.7 |
| 20260503205003 | 70 | 214 | 0.9 | 11.3 | 0.00 | 0.00 | 0.00 | 48 | 1007.7 |
| 20260503204503 | 70 | 247 | 0.9 | 9.6 | 0.00 | 0.00 | 0.00 | 49 | 1007.7 |
| 20260503204003 | 69 | 233 | 0.9 | 6.1 | 0.00 | 0.00 | 0.00 | 48 | 1007.8 |
| 20260503203503 | 69 | 231 | 0.9 | 6.1 | 0.00 | 0.00 | 0.00 | 49 | 1007.8 |
| 20260503203003 | 69 | 206 | 0.9 | 6.1 | 0.00 | 0.00 | 0.00 | 48 | 1007.8 |
| 20260503202503 | 69 | 190 | 0.9 | 7.8 | 0.00 | 0.00 | 0.00 | 48 | 1008.1 |
| 20260503202003 | 69 | 234 | 0.9 | 7.8 | 0.00 | 0.00 | 0.00 | 48 | 1008.0 |
| 20260503201503 | 69 | 236 | 0.9 | 8.7 | 0.00 | 0.00 | 0.00 | 49 | 1008.0 |
| 20260503201003 | 69 | 227 | 0.9 | 8.7 | 0.00 | 0.00 | 0.00 | 47 | 1008.0 |
| 20260503200503 | 69 | 229 | 0.9 | 8.7 | 0.00 | 0.00 | 0.00 | 49 | 1007.8 |
| 20260503200003 | 69 | 211 | 0.9 | 8.7 | 0.00 | 0.00 | 0.00 | 47 | 1007.8 |
| 20260503195713 | 70 | 224 | 1.7 | 11.3 | 0.00 | 0.00 | 0.00 | 47 | 1007.7 |
| 20260503195003 | 69 | 242 | 0.9 | 11.3 | 0.00 | 0.00 | 0.00 | 48 | 1008.0 |
| 20260503194503 | 69 | 219 | 0.9 | 11.3 | 0.00 | 0.00 | 0.00 | 48 | 1008.2 |
| 20260503194213 | 68 | 215 | 0.9 | 11.3 | 0.00 | 0.00 | 0.00 | 49 | 1008.2 |
| 20260503193503 | 68 | 221 | 0.9 | 9.6 | 0.00 | 0.00 | 0.00 | 49 | 1008.4 |
| 20260503193003 | 68 | 206 | 0.9 | 5.2 | 0.00 | 0.00 | 0.00 | 48 | 1008.4 |
| 20260503192503 | 68 | 227 | 0.9 | 6.1 | 0.00 | 0.00 | 0.00 | 47 | 1008.2 |
| 20260503192003 | 68 | 232 | 0.9 | 10.4 | 0.00 | 0.00 | 0.00 | 47 | 1008.3 |
| 20260503191503 | 69 | 224 | 0.9 | 10.4 | 0.00 | 0.00 | 0.00 | 46 | 1008.3 |
| 20260503191003 | 69 | 210 | 0.0 | 5.2 | 0.00 | 0.00 | 0.00 | 47 | 1008.5 |
| 20260503190503 | 69 | 216 | 0.9 | 7.0 | 0.00 | 0.00 | 0.00 | 47 | 1008.5 |
| 20260503190003 | 69 | 231 | 0.9 | 13.0 | 0.00 | 0.00 | 0.00 | 45 | 1008.5 |
| 20260503185503 | 69 | 237 | 1.7 | 13.0 | 0.00 | 0.00 | 0.00 | 46 | 1008.6 |
| 20260503185003 | 69 | 230 | 0.9 | 13.0 | 0.00 | 0.00 | 0.00 | 48 | 1008.6 |
| 20260503184503 | 69 | 215 | 1.7 | 10.4 | 0.00 | 0.00 | 0.00 | 47 | 1008.6 |
| 20260503184003 | 69 | 221 | 1.7 | 10.4 | 0.00 | 0.00 | 0.00 | 45 | 1008.8 |
| 20260503183712 | 69 | 221 | 1.7 | 9.6 | 0.00 | 0.00 | 0.00 | 48 | 1008.9 |
| 20260503183003 | 70 | 243 | 1.7 | 9.6 | 0.00 | 0.00 | 0.00 | 46 | 1008.9 |
| 20260503182503 | 69 | 229 | 1.7 | 9.6 | 0.00 | 0.00 | 0.00 | 46 | 1008.9 |
| 20260503182003 | 69 | 218 | 2.6 | 10.4 | 0.00 | 0.00 | 0.00 | 45 | 1008.8 |
| 20260503181504 | 69 | 229 | 2.6 | 10.4 | 0.00 | 0.00 | 0.00 | 45 | 1008.9 |
| 20260503181003 | 69 | 229 | 1.7 | 11.3 | 0.00 | 0.00 | 0.00 | 45 | 1009.1 |
| 20260503180503 | 68 | 229 | 1.7 | 15.6 | 0.00 | 0.00 | 0.00 | 46 | 1009.0 |
| 20260503180004 | 68 | 217 | 1.7 | 15.6 | 0.00 | 0.00 | 0.00 | 47 | 1009.3 |
| 20260503175503 | 68 | 205 | 1.7 | 13.9 | 0.00 | 0.00 | 0.00 | 46 | 1009.5 |
| 20260503175003 | 67 | 221 | 1.7 | 8.7 | 0.00 | 0.00 | 0.00 | 47 | 1009.6 |
| 20260503174714 | 67 | 211 | 2.6 | 13.9 | 0.00 | 0.00 | 0.00 | 49 | 1009.2 |
| 20260503174003 | 67 | 196 | 2.6 | 13.9 | 0.00 | 0.00 | 0.00 | 46 | 1009.8 |
| 20260503173503 | 67 | 193 | 1.7 | 11.3 | 0.00 | 0.00 | 0.00 | 47 | 1009.6 |
| 20260503173003 | 67 | 198 | 0.9 | 10.4 | 0.00 | 0.00 | 0.00 | 48 | 1009.6 |
| 20260503172504 | 66 | 181 | 0.9 | 13.9 | 0.00 | 0.00 | 0.00 | 51 | 1009.6 |
| 20260503172003 | 65 | 187 | 0.9 | 13.9 | 0.00 | 0.00 | 0.00 | 47 | 1009.8 |
| 20260503171503 | 65 | 204 | 0.9 | 13.0 | 0.00 | 0.00 | 0.00 | 49 | 1009.8 |
| 20260503171213 | 65 | 213 | 1.7 | 11.3 | 0.00 | 0.00 | 0.00 | 50 | 1009.9 |
| 20260503170503 | 63 | 216 | 1.7 | 11.3 | 0.00 | 0.00 | 0.00 | 51 | 1010.0 |
| 20260503151003 | 54 | 156 | 0.0 | 3.5 | 0.00 | 0.00 | 0.00 | 65 | 1012.2 |
| 20260503150713 | 54 | 155 | 0.0 | 3.5 | 0.00 | 0.00 | 0.00 | 64 | 1012.1 |